Change the Weather History Date:

Friday, August 23, 2013

  Actual Average Record
Temperature  
Mean Temperature 72 °F -  
Max Temperature 76 °F 81 °F 89 °F (1996)
Min Temperature 68 °F 62 °F 54 °F (2011)
Cooling Degree Days 7    
Month to date cooling degree days 158  
Year to date cooling degree days 903  
Since 1 June cooling degree days 786  
Growing Degree Days 20 (Base 50)    
Moisture  
Dew Point 65 °F    
Average Humidity 76    
Maximum Humidity 84    
Minimum Humidity 68    
Precipitation  
Precipitation 0.07 in - - ()
Month to date precipitation 1.54  
Year to date precipitation 19.02  
Sea Level Pressure  
Sea Level Pressure 30.08 in    
Wind  
Wind Speed 2 mph (NE)    
Max Wind Speed 8 mph    
Max Gust Speed 10 mph    
Visibility 7 miles    
Events Fog , Rain    
Averages and records for this station are not official NWS values.
T = Trace of Precipitation, MM = Missing Value Source: NWS Daily Summary

Daily Weather History Graph

Daily Weather History Graph

Search for Another Location

Airport or City:

Trip Planner

Search our weather history database for the weather conditions in past years. The results will help you decide how hot, cold, wet, or windy it might be!

Date:

Astronomy

Aug. 23, 2013 Rise Set
Actual Time 6:30 AM EDT 7:55 PM EDT
Civil Twilight 6:02 AM EDT 8:23 PM EDT
Nautical Twilight 5:28 AM EDT 8:57 PM EDT
Astronomical Twilight 4:52 AM EDT 9:32 PM EDT
Moon 9:13 PM EDT (8/23) 9:23 AM EDT (8/23)
Length of Visible Light 14h 20m
Length of Day
13h 24m
Waning Gibbous, 91% of the Moon is Illuminated
Aug 23
Waning Gibbous
Aug 28
Last Quarter
Sep 5
New
Sep 12
First Quarter
Sep 19
Full

Hourly Weather History & Observations

Time (EDT) Temp. Dew Point Humidity Pressure Visibility Wind Dir Wind Speed Gust Speed Precip Events Conditions
12:53 AM 73.0 °F 63.0 °F 71% 30.01 in 10.0 mi Calm Calm - N/A   Clear
1:53 AM 73.0 °F 63.0 °F 71% 30.01 in 10.0 mi Calm Calm - N/A   Clear
2:53 AM 70.0 °F 63.0 °F 78% 29.99 in 10.0 mi ESE 6.9 mph - N/A   Scattered Clouds
3:53 AM 71.1 °F 64.0 °F 78% 29.99 in 10.0 mi Calm Calm - N/A   Clear
4:53 AM 70.0 °F 64.9 °F 84% 29.99 in 9.0 mi Calm Calm - 0.00 in Rain Light Rain
5:53 AM 68.0 °F 64.0 °F 87% 30.00 in 8.0 mi Calm Calm - 0.00 in   Clear
6:53 AM 70.0 °F 64.0 °F 81% 30.02 in 7.0 mi Calm Calm - N/A   Partly Cloudy
7:53 AM 69.1 °F 64.9 °F 87% 30.03 in 6.0 mi ENE 5.8 mph - 0.00 in Rain Light Rain
8:53 AM 69.1 °F 66.0 °F 90% 30.04 in 6.0 mi Calm Calm - 0.00 in   Overcast
9:53 AM 73.0 °F 66.9 °F 81% 30.05 in 7.0 mi Calm Calm - N/A   Scattered Clouds
10:53 AM 72.0 °F 68.0 °F 87% 30.10 in 4.0 mi NW 5.8 mph - 0.01 in Rain Light Rain
11:13 AM 69.8 °F 68.0 °F 94% 30.10 in 2.5 mi NW 3.5 mph - 0.02 in Rain Light Rain
11:33 AM 71.6 °F 69.8 °F 94% 30.10 in 3.0 mi South 4.6 mph - 0.03 in Rain Light Rain
11:53 AM 70.0 °F 64.0 °F 81% 30.11 in 8.0 mi SE 5.8 mph - 0.04 in Rain Light Rain
12:53 PM 70.0 °F 64.0 °F 81% 30.11 in 10.0 mi ESE 3.5 mph - 0.00 in   Overcast
1:53 PM 70.0 °F 62.1 °F 76% 30.10 in 10.0 mi Calm Calm - 0.01 in Rain Light Rain
2:53 PM 70.0 °F 63.0 °F 78% 30.10 in 10.0 mi NW 4.6 mph - 0.01 in Rain Light Rain
3:53 PM 72.0 °F 64.0 °F 76% 30.09 in 10.0 mi NW 4.6 mph - 0.00 in   Overcast
4:14 PM 71.6 °F 68.0 °F 88% 30.07 in 6.0 mi WNW 5.8 mph - N/A   Mostly Cloudy
4:25 PM 71.6 °F 68.0 °F 88% 30.07 in 6.0 mi WNW 3.5 mph - N/A   Mostly Cloudy
4:48 PM 73.4 °F 66.2 °F 78% 30.07 in 7.0 mi WNW 4.6 mph - N/A   Partly Cloudy
4:53 PM 73.9 °F 66.0 °F 76% 30.09 in 8.0 mi Calm Calm - N/A   Scattered Clouds
5:53 PM 75.9 °F 62.1 °F 62% 30.09 in 10.0 mi North 3.5 mph - N/A   Clear
6:53 PM 75.0 °F 61.0 °F 62% 30.08 in 10.0 mi NE 3.5 mph - N/A   Clear
7:53 PM 72.0 °F 66.0 °F 81% 30.09 in 10.0 mi SW 3.5 mph - N/A   Clear
8:53 PM 70.0 °F 64.9 °F 84% 30.12 in 10.0 mi SW 4.6 mph - N/A   Clear
9:53 PM 66.9 °F 64.0 °F 90% 30.15 in 9.0 mi SSW 3.5 mph - N/A   Clear
10:53 PM 68.0 °F 64.0 °F 87% 30.16 in 8.0 mi SE 4.6 mph - N/A   Clear
11:37 PM 64.4 °F 62.6 °F 94% 30.15 in 1.5 mi East 3.5 mph - N/A   Partly Cloudy
11:46 PM 64.4 °F 64.4 °F 100% 30.16 in 0.8 mi ENE 3.5 mph - N/A   Partly Cloudy
11:53 PM 64.0 °F 64.0 °F 100% 30.18 in 0.2 mi ENE 3.5 mph - N/A Fog Fog
11:59 PM 64.4 °F 64.4 °F 100% 30.16 in 0.2 mi East 4.6 mph - N/A Fog Fog